FW0472 Weather Reports


Display with metric or nautical units.
time (UTC)temp
F
wind
direction
speed
MPH
gust
MPH
rain 1hr
in
rain 24hr
in
rain mn
in
humidity
%
barometer
mb
20260905164555 68 264 1.0 2.0 0.00 0.00 0.00 75 1038.0
20260905164050 69 343 0.0 0.0 0.00 0.00 0.00 76 1038.1
20260905163546 68 350 0.0 0.0 0.00 0.00 0.00 75 1038.1
20260905163042 68 322 0.0 0.0 0.00 0.00 0.00 75 1038.1
20260905162538 69 344 0.0 0.0 0.00 0.00 0.00 75 1038.1
20260905162037 69 332 0.0 0.0 0.00 0.00 0.00 75 1037.9
20260905161532 69 357 0.0 1.0 0.00 0.00 0.00 73 1038.0
20260905161030 69 15 0.0 1.0 0.00 0.00 0.00 75 1038.0
20260905160529 69 315 0.0 0.0 0.00 0.00 0.00 74 1038.1
20260905160028 69 4 0.0 0.0 0.00 0.00 0.00 75 1038.1
20260905155528 68 2 0.0 0.0 0.00 0.00 0.00 75 1038.1
20260905155026 68 319 0.0 0.0 0.00 0.00 0.00 76 1038.3
20260905154522 68 339 0.0 0.0 0.00 0.00 0.00 80 1038.2
20260905154018 68 348 0.0 0.0 0.00 0.00 0.00 79 1038.1
20260905153514 68 322 0.0 0.0 0.00 0.00 0.00 81 1038.1
20260905153014 68 314 0.0 0.0 0.00 0.00 0.00 81 1038.0
20260905152514 68 326 0.0 0.0 0.00 0.00 0.00 81 1038.0
20260905152009 68 331 0.0 0.0 0.00 0.00 0.00 80 1038.0
20260905151504 68 8 1.0 2.0 0.00 0.00 0.00 80 1038.1
20260905150959 68 327 0.0 0.0 0.00 0.00 0.00 80 1037.9
20260905150453 69 327 0.0 0.0 0.00 0.00 0.00 79 1038.0
20260905145950 70 344 0.0 0.0 0.00 0.00 0.00 77 1037.9
20260905145445 69 326 0.0 1.0 0.00 0.00 0.00 76 1037.8
20260905144944 69 326 1.0 1.0 0.00 0.00 0.00 77 1037.9
20260905144440 68 344 0.0 0.0 0.00 0.00 0.00 79 1037.8
20260905143939 68 352 0.0 1.0 0.00 0.00 0.00 77 1037.9
20260905143432 67 338 0.0 1.0 0.00 0.00 0.00 79 1038.1
20260905142927 67 322 0.0 1.0 0.00 0.00 0.00 80 1037.8
20260905142426 67 341 0.0 0.0 0.00 0.00 0.00 80 1038.0
20260905141922 67 349 0.0 0.0 0.00 0.00 0.00 80 1037.9
20260905141416 67 7 0.0 1.0 0.00 0.00 0.00 81 1038.0
20260905140913 66 330 0.0 0.0 0.00 0.00 0.00 82 1037.7
20260905140408 66 332 0.0 0.0 0.00 0.00 0.00 84 1037.9
20260905135906 66 58 0.0 0.0 0.00 0.00 0.00 84 1037.9
20260905135402 66 328 0.0 0.0 0.00 0.00 0.00 86 1037.8
20260905134858 66 346 0.0 0.0 0.00 0.00 0.00 88 1037.9
20260905134356 66 325 0.0 0.0 0.00 0.00 0.00 85 1037.9
20260905133850 65 323 0.0 0.0 0.00 0.00 0.00 86 1037.7
20260905133346 64 331 0.0 0.0 0.00 0.00 0.00 89 1037.6
20260905132845 64 345 0.0 0.0 0.00 0.00 0.00 89 1037.5
20260905132341 64 315 0.0 0.0 0.00 0.00 0.00 89 1037.5
20260905131840 64 298 0.0 0.0 0.00 0.00 0.00 90 1037.4
20260905131336 63 317 0.0 0.0 0.00 0.00 0.00 91 1037.6
20260905130831 63 306 0.0 0.0 0.00 0.00 0.00 91 1037.3
20260905130330 62 323 0.0 0.0 0.00 0.00 0.00 93 1037.5
20260905125825 62 331 0.0 0.0 0.00 0.00 0.00 93 1037.4
20260905125320 62 321 0.0 0.0 0.00 0.00 0.00 94 1037.5
20260905124816 61 322 0.0 0.0 0.00 0.00 0.00 95 1037.6
20260905124313 60 321 0.0 0.0 0.00 0.00 0.00 96 1037.8
20260905123807 60 325 0.0 0.0 0.00 0.00 0.00 96 1037.6
20260905123304 60 359 0.0 0.0 0.00 0.00 0.00 97 1037.4
20260905122804 60 358 0.0 0.0 0.00 0.00 0.00 97 1037.5
20260905122306 60 359 0.0 0.0 0.00 0.00 0.00 97 1037.5
20260905121759 60 358 0.0 0.0 0.00 0.00 0.00 97 1037.5
20260905121255 60 358 0.0 0.0 0.00 0.00 0.00 97 1037.4
20260905120753 59 356 0.0 0.0 0.00 0.00 0.00 97 1037.5
20260905120248 59 356 0.0 0.0 0.00 0.00 0.00 97 1037.5
20260905115743 59 355 0.0 0.0 0.00 0.00 0.00 98 1037.6
20260905115243 59 356 0.0 0.0 0.00 0.00 0.00 98 1037.5
20260905114742 59 356 0.0 0.0 0.00 0.00 0.00 98 1037.4
20260905114241 59 356 0.0 0.0 0.00 0.00 0.00 98 1037.3
20260905113740 59 355 0.0 0.0 0.00 0.00 0.00 98 1037.2
20260905113236 59 355 0.0 0.0 0.00 0.00 0.00 98 1037.3
20260905112731 59 356 0.0 0.0 0.00 0.00 0.00 98 1037.1
20260905112226 59 356 0.0 0.0 0.00 0.00 0.00 98 1037.0
20260905111721 59 356 0.0 0.0 0.00 0.00 0.00 98 1037.0
20260905111215 59 355 0.0 0.0 0.00 0.00 0.00 98 1037.1
20260905110714 59 354 0.0 0.0 0.00 0.00 0.00 98 1037.0
20260905110209 59 354 0.0 0.0 0.00 0.00 0.00 98 1037.0
20260905105705 59 355 0.0 0.0 0.00 0.00 0.00 98 1037.0
20260905105203 59 354 0.0 0.0 0.00 0.00 0.00 98 1037.1
20260905104658 58 354 0.0 0.0 0.00 0.00 0.00 98 1036.9
20260905104154 58 354 0.0 0.0 0.00 0.00 0.00 98 1036.8
20260905103649 58 354 0.0 0.0 0.00 0.00 0.00 98 1037.0
20260905103145 58 354 0.0 0.0 0.00 0.00 0.00 98 1036.9
20260905102641 58 354 0.0 0.0 0.00 0.00 0.00 98 1037.0
20260905102137 58 354 0.0 0.0 0.00 0.00 0.00 98 1036.8
20260905101636 58 354 0.0 0.0 0.00 0.00 0.00 98 1036.8
20260905101134 58 354 0.0 0.0 0.00 0.00 0.00 98 1036.8
20260905100630 58 355 0.0 0.0 0.00 0.00 0.00 98 1036.7
20260905100125 58 354 0.0 0.0 0.00 0.00 0.00 98 1036.6
20260905095619 58 354 0.0 0.0 0.00 0.00 0.00 98 1036.7
20260905095114 58 354 0.0 0.0 0.00 0.00 0.00 98 1036.6
20260905094609 58 354 0.0 0.0 0.00 0.00 0.00 98 1036.7
20260905094109 58 354 0.0 0.0 0.00 0.00 0.00 98 1036.5
20260905093609 58 354 0.0 0.0 0.00 0.00 0.00 98 1036.8
20260905093105 58 354 0.0 0.0 0.00 0.00 0.00 98 1036.7
20260905092604 58 354 0.0 0.0 0.00 0.00 0.00 98 1036.6
20260905092101 58 355 0.0 0.0 0.00 0.00 0.00 98 1036.6
20260905091600 57 354 0.0 0.0 0.00 0.00 0.00 98 1036.6
20260905091055 57 354 0.0 0.0 0.00 0.00 0.00 98 1036.6
20260905090554 57 354 0.0 0.0 0.00 0.00 0.00 98 1036.7
20260905090050 57 354 0.0 0.0 0.00 0.00 0.00 98 1036.6
20260905085548 57 354 0.0 0.0 0.00 0.00 0.00 98 1036.5
20260905085044 57 354 0.0 0.0 0.00 0.00 0.00 98 1036.6
20260905084543 58 354 0.0 0.0 0.00 0.00 0.00 98 1036.5
20260905084039 58 354 0.0 0.0 0.00 0.00 0.00 98 1036.9
20260905083533 58 357 0.0 0.0 0.00 0.00 0.00 98 1036.6
20260905083030 58 352 0.0 0.0 0.00 0.00 0.00 98 1036.5
20260905082520 58 352 0.0 0.0 0.00 0.00 0.00 98 1036.6
20260905082015 58 352 0.0 0.0 0.00 0.00 0.00 98 1036.5
20260905081515 58 352 0.0 0.0 0.00 0.00 0.00 98 1036.6
20260905081015 58 352 0.0 0.0 0.00 0.00 0.00 98 1036.3
20260905080509 58 352 0.0 0.0 0.00 0.00 0.00 98 1036.5
20260905080004 58 352 0.0 0.0 0.00 0.00 0.00 98 1036.6
20260905075457 58 354 0.0 0.0 0.00 0.00 0.00 98 1036.6
20260905074956 58 354 0.0 0.0 0.00 0.00 0.00 98 1036.6
20260905074452 58 355 0.0 0.0 0.00 0.00 0.00 98 1036.7
20260905073947 59 0 0.0 0.0 0.00 0.00 0.00 98 1036.8
20260905073442 59 338 0.0 0.0 0.00 0.00 0.00 97 1036.7
20260905072938 59 351 0.0 0.0 0.00 0.00 0.00 97 1036.6
20260905072432 59 356 0.0 0.0 0.00 0.00 0.00 97 1036.7
20260905071928 59 318 0.0 0.0 0.00 0.00 0.00 97 1036.6
20260905071426 59 340 0.0 0.0 0.00 0.00 0.00 97 1036.8
20260905070924 59 337 0.0 0.0 0.00 0.00 0.00 97 1036.7
20260905070421 59 340 0.0 0.0 0.00 0.00 0.00 97 1036.6
20260905065920 59 323 0.0 0.0 0.00 0.00 0.00 97 1036.8
20260905065419 59 328 0.0 0.0 0.00 0.00 0.00 97 1037.0
20260905064914 59 328 0.0 0.0 0.00 0.00 0.00 96 1036.9
20260905064409 59 329 0.0 0.0 0.00 0.00 0.00 96 1037.2
20260905063908 60 329 0.0 0.0 0.00 0.00 0.00 96 1036.9
20260905063404 60 331 0.0 0.0 0.00 0.00 0.00 96 1037.1
20260905062900 60 344 0.0 0.0 0.00 0.00 0.00 96 1036.9
20260905062354 60 326 0.0 0.0 0.00 0.00 0.00 96 1037.1
20260905061849 60 325 0.0 0.0 0.00 0.00 0.00 96 1037.0
20260905061343 60 326 0.0 0.0 0.00 0.00 0.00 96 1037.3
20260905060838 60 0 0.0 0.0 0.00 0.00 0.00 96 1037.3
20260905060335 60 352 0.0 0.0 0.00 0.00 0.00 96 1037.3
20260905055833 60 330 0.0 0.0 0.00 0.00 0.00 96 1037.3
20260905055328 60 315 0.0 0.0 0.00 0.00 0.00 96 1037.2
20260905054828 60 322 0.0 0.0 0.00 0.00 0.00 95 1037.0
20260905054325 60 15 0.0 0.0 0.00 0.00 0.00 95 1037.0
20260905053824 60 338 0.0 0.0 0.00 0.00 0.00 95 1036.6
20260905053319 61 337 0.0 0.0 0.00 0.00 0.00 95 1036.6
20260905052814 61 337 0.0 0.0 0.00 0.00 0.00 94 1036.8
20260905052313 61 337 0.0 0.0 0.00 0.00 0.00 94 1036.9
20260905051808 61 337 0.0 0.0 0.00 0.00 0.00 94 1036.9
20260905051304 61 338 0.0 0.0 0.00 0.00 0.00 94 1036.9
20260905050801 61 334 0.0 0.0 0.00 0.00 0.00 94 1037.0
20260905050257 61 333 0.0 0.0 0.00 0.00 0.00 94 1037.1
20260905045751 62 333 0.0 0.0 0.00 0.00 0.00 94 1037.0
20260905045247 62 333 0.0 0.0 0.00 0.00 0.00 94 1037.3
20260905044742 62 341 0.0 0.0 0.00 0.00 0.00 93 1037.2
20260905044237 62 342 0.0 0.0 0.00 0.00 0.00 93 1037.2
20260905043735 62 341 0.0 0.0 0.00 0.00 0.00 93 1037.2
20260905043236 62 326 0.0 0.0 0.00 0.00 0.00 92 1037.3
20260905042731 62 326 0.0 0.0 0.00 0.00 0.00 92 1037.3
20260905042230 62 326 0.0 0.0 0.00 0.00 0.00 92 1037.4
20260905041726 62 326 0.0 0.0 0.00 0.00 0.00 92 1037.2
20260905041221 62 326 0.0 0.0 0.00 0.00 0.00 92 1037.5
20260905040716 62 325 0.0 0.0 0.00 0.00 0.00 91 1037.5
20260905040215 63 352 0.0 0.0 0.00 0.00 0.00 91 1037.3
20260905035715 63 352 0.0 0.0 0.00 0.00 0.00 91 1037.4
20260905035211 63 352 0.0 0.0 0.00 0.00 0.00 91 1037.3
20260905034707 63 352 0.0 0.0 0.00 0.00 0.00 91 1037.3
20260905034206 63 352 0.0 0.0 0.00 0.00 0.00 90 1037.3
20260905033700 63 352 0.0 0.0 0.00 0.00 0.00 90 1037.3
20260905033156 63 352 0.0 0.0 0.00 0.00 0.00 90 1037.3
20260905032655 63 353 0.0 0.0 0.00 0.00 0.00 90 1037.3
20260905032150 63 352 0.0 0.0 0.00 0.00 0.00 90 1037.3
20260905031646 64 351 0.0 0.0 0.00 0.00 0.00 89 1037.1
20260905031141 64 351 0.0 0.0 0.00 0.00 0.00 89 1037.3
20260905030636 64 351 0.0 0.0 0.00 0.00 0.00 88 1037.3
20260905030131 64 351 0.0 0.0 0.00 0.00 0.00 88 1037.3
20260905025626 64 351 0.0 0.0 0.00 0.00 0.00 87 1037.5
20260905025122 64 351 0.0 0.0 0.00 0.00 0.00 87 1037.6
20260905024617 64 351 0.0 0.0 0.00 0.00 0.00 87 1037.5
20260905024112 65 351 0.0 0.0 0.00 0.00 0.00 87 1037.4
20260905023608 65 351 0.0 0.0 0.00 0.00 0.00 86 1037.7
20260905023102 65 351 0.0 0.0 0.00 0.00 0.00 85 1037.9
20260905022601 65 351 0.0 0.0 0.00 0.00 0.00 85 1037.9
20260905022057 66 351 0.0 0.0 0.00 0.00 0.00 85 1037.9
20260905021556 66 351 0.0 0.0 0.00 0.00 0.00 84 1037.8
20260905021052 66 351 0.0 0.0 0.00 0.00 0.00 83 1037.8
20260905020551 67 351 0.0 0.0 0.00 0.00 0.00 82 1037.8
20260905020047 67 351 0.0 0.0 0.00 0.00 0.00 81 1037.8
20260905015544 67 351 0.0 0.0 0.00 0.00 0.00 80 1037.7
20260905015040 67 351 0.0 0.0 0.00 0.00 0.00 79 1037.9
20260905014534 67 349 0.0 0.0 0.00 0.00 0.00 79 1037.9
20260905014030 67 347 0.0 0.0 0.00 0.00 0.00 79 1037.8
20260905013526 67 347 0.0 0.0 0.00 0.00 0.00 79 1037.8
20260905013022 67 348 0.0 0.0 0.00 0.00 0.00 78 1038.0
20260905012515 67 349 0.0 0.0 0.00 0.00 0.00 77 1038.1
20260905012013 68 349 0.0 0.0 0.00 0.00 0.00 77 1037.8
20260905011509 68 349 0.0 0.0 0.00 0.00 0.00 77 1038.1
20260905011004 68 349 0.0 0.0 0.00 0.00 0.00 77 1038.0
20260905010503 68 349 0.0 0.0 0.00 0.00 0.00 77 1037.9
20260905005959 68 346 0.0 0.0 0.00 0.00 0.00 76 1037.9
20260905005455 68 339 0.0 0.0 0.00 0.00 0.00 75 1037.9
20260905004950 68 346 0.0 0.0 0.00 0.00 0.00 75 1038.2
20260905004445 68 341 0.0 0.0 0.00 0.00 0.00 75 1038.0
20260905003940 69 346 0.0 0.0 0.00 0.00 0.00 75 1038.0
20260905003436 69 346 0.0 0.0 0.00 0.00 0.00 74 1037.9
20260905002931 69 348 0.0 0.0 0.00 0.00 0.00 73 1038.0
20260905002426 69 334 0.0 0.0 0.00 0.00 0.00 73 1038.0
20260905001925 69 325 0.0 0.0 0.00 0.00 0.00 73 1037.9
20260905001421 69 29 1.0 2.0 0.00 0.00 0.00 73 1037.9
20260905000915 69 354 0.0 0.0 0.00 0.00 0.00 73 1037.8
20260905000411 69 14 0.0 0.0 0.00 0.00 0.00 74 1037.6
20260904235906 69 344 0.0 0.0 0.00 0.00 0.00 74 1037.8
20260904235401 69 350 0.0 0.0 0.00 0.00 0.00 74 1037.7
20260904234856 69 331 0.0 0.0 0.00 0.00 0.00 74 1037.5
20260904234350 69 340 0.0 0.0 0.00 0.00 0.00 75 1037.4
20260904233846 69 350 1.0 1.0 0.00 0.00 0.00 75 1037.3
20260904233342 69 50 1.0 1.0 0.00 0.00 0.00 74 1037.4
20260904232839 69 336 0.0 0.0 0.00 0.00 0.00 74 1037.4
20260904232335 69 357 0.0 0.0 0.00 0.00 0.00 74 1037.4
20260904231831 69 30 1.0 1.0 0.00 0.00 0.00 75 1037.5
20260904231330 69 341 0.0 0.0 0.00 0.00 0.00 75 1037.2
20260904230826 70 353 0.0 0.0 0.00 0.00 0.00 75 1037.3
20260904230325 70 350 0.0 0.0 0.00 0.00 0.00 74 1037.4
20260904225820 70 354 0.0 0.0 0.00 0.00 0.00 74 1037.3
20260904225318 70 47 1.0 1.0 0.00 0.00 0.00 73 1037.3
20260904224818 70 45 0.0 1.0 0.00 0.00 0.00 73 1037.4
20260904224314 71 343 0.0 0.0 0.00 0.00 0.00 72 1037.5
20260904223813 71 356 0.0 0.0 0.00 0.00 0.00 73 1037.5
20260904223307 71 2 1.0 1.0 0.00 0.00 0.00 72 1037.2
20260904222804 71 11 1.0 1.0 0.00 0.00 0.00 71 1037.3
20260904222259 71 340 0.0 0.0 0.00 0.00 0.00 71 1037.4
20260904221758 71 357 0.0 1.0 0.00 0.00 0.00 72 1037.3
20260904221253 72 359 0.0 0.0 0.00 0.00 0.00 73 1037.3
20260904220749 72 348 0.0 1.0 0.00 0.00 0.00 71 1037.2
20260904220247 71 352 0.0 0.0 0.00 0.00 0.00 73 1037.3
20260904215743 71 353 0.0 0.0 0.00 0.00 0.00 73 1037.3
20260904215238 72 351 0.0 0.0 0.00 0.00 0.00 71 1037.2
20260904214734 72 322 0.0 0.0 0.00 0.00 0.00 69 1037.1
20260904214229 73 326 0.0 0.0 0.00 0.00 0.00 71 1037.2
20260904213727 72 353 0.0 0.0 0.00 0.00 0.00 70 1037.3
20260904213224 73 333 0.0 0.0 0.00 0.00 0.00 66 1037.4
20260904212719 73 349 0.0 0.0 0.00 0.00 0.00 66 1037.4
20260904212214 73 303 1.0 2.0 0.00 0.00 0.00 65 1037.4
20260904211714 73 330 0.0 0.0 0.00 0.00 0.00 67 1037.3
20260904211208 73 306 0.0 1.0 0.00 0.00 0.00 64 1037.3
20260904210703 73 41 0.0 1.0 0.00 0.00 0.00 65 1037.2
20260904210158 73 328 0.0 1.0 0.00 0.00 0.00 64 1037.3
20260904205654 73 324 0.0 0.0 0.00 0.00 0.00 66 1037.2
20260904205150 74 29 0.0 0.0 0.00 0.00 0.00 66 1037.2
20260904204646 74 10 0.0 1.0 0.00 0.00 0.00 64 1037.0
20260904204141 74 17 0.0 1.0 0.00 0.00 0.00 64 1037.2
20260904203637 74 344 0.0 0.0 0.00 0.00 0.00 63 1037.4
20260904203134 75 358 0.0 1.0 0.00 0.00 0.00 62 1037.2
20260904202630 75 349 0.0 0.0 0.00 0.00 0.00 63 1037.2
20260904202126 76 326 0.0 0.0 0.00 0.00 0.00 62 1037.2
20260904201626 77 326 1.0 2.0 0.00 0.00 0.00 57 1037.0
20260904201121 77 336 0.0 0.0 0.00 0.00 0.00 57 1037.2
20260904200615 76 13 0.0 0.0 0.00 0.00 0.00 59 1037.1
20260904200110 76 342 0.0 0.0 0.00 0.00 0.00 63 1037.0
20260904195608 76 88 2.0 3.0 0.00 0.00 0.00 60 1037.0
20260904195108 76 347 0.0 0.0 0.00 0.00 0.00 62 1036.8
20260904194602 76 336 0.0 0.0 0.00 0.00 0.00 60 1037.1
20260904194057 77 6 0.0 0.0 0.00 0.00 0.00 62 1037.1
20260904193551 78 79 0.0 1.0 0.00 0.00 0.00 57 1037.1
20260904193048 77 346 0.0 0.0 0.00 0.00 0.00 62 1037.0
20260904192547 77 319 0.0 0.0 0.00 0.00 0.00 59 1037.3
20260904192044 76 341 1.0 2.0 0.00 0.00 0.00 61 1037.2
20260904191540 76 348 0.0 0.0 0.00 0.00 0.00 62 1037.3
20260904191036 76 355 0.0 1.0 0.00 0.00 0.00 59 1037.3
20260904190532 76 21 3.0 3.0 0.00 0.00 0.00 61 1037.3
20260904190028 75 81 2.0 2.0 0.00 0.00 0.00 61 1037.1
20260904185524 75 354 0.0 0.0 0.00 0.00 0.00 62 1037.3
20260904185018 76 299 0.0 1.0 0.00 0.00 0.00 60 1037.2
20260904184513 77 343 0.0 0.0 0.00 0.00 0.00 62 1037.2
20260904184008 77 321 0.0 0.0 0.00 0.00 0.00 59 1037.2
20260904183503 75 16 0.0 1.0 0.00 0.00 0.00 62 1037.3
20260904182958 76 36 1.0 2.0 0.00 0.00 0.00 61 1037.1
20260904182454 76 78 1.0 2.0 0.00 0.00 0.00 60 1037.2
20260904181953 76 327 0.0 1.0 0.00 0.00 0.00 62 1037.3
20260904181449 76 325 0.0 0.0 0.00 0.00 0.00 63 1037.2
20260904180944 75 354 0.0 0.0 0.00 0.00 0.00 64 1037.5
20260904180439 76 308 0.0 0.0 0.00 0.00 0.00 64 1037.4
20260904175938 76 315 0.0 0.0 0.00 0.00 0.00 62 1037.5
20260904175437 77 338 0.0 1.0 0.00 0.00 0.00 58 1037.5
20260904174932 78 89 4.0 5.0 0.00 0.00 0.00 57 1037.3
20260904174427 77 336 0.0 0.0 0.00 0.00 0.00 57 1037.1
20260904173924 76 343 0.0 1.0 0.00 0.00 0.00 57 1037.0
20260904173419 75 358 0.0 0.0 0.00 0.00 0.00 62 1037.0
20260904172914 75 327 0.0 0.0 0.00 0.00 0.00 63 1037.2
20260904172414 74 321 0.0 0.0 0.00 0.00 0.00 65 1037.4
20260904171903 74 315 0.0 0.0 0.00 0.00 0.00 66 1037.1
20260904171358 74 323 0.0 0.0 0.00 0.00 0.00 66 1037.4
20260904170854 74 342 0.0 0.0 0.00 0.00 0.00 68 1037.5
20260904170350 74 304 1.0 2.0 0.00 0.00 0.00 65 1037.4
20260904165844 74 25 4.0 6.0 0.00 0.00 0.00 65 1037.3
20260904165337 74 331 0.0 0.0 0.00 0.00 0.00 68 1037.4